Snowfall_Accumulation
0.0 0.0 0.0 0.0 0.0 0.0 0.0 0.0 0.0 0.0 0.0 0.0 0.0 0.0 0.0 0.0 0.0 0.0 0.0 nan nan nan nan nan nan nan nan nan nan nan nan nan nan nan nan nan nan nan
0.0 0.0 0.0 0.0 0.0 0.0 0.0 0.0 0.0 0.0 0.0 0.0 0.0 0.0 0.0 0.0 0.0 0.0 0.0 nan nan nan nan nan nan nan nan nan nan nan nan nan nan nan nan nan nan nan
0.0 0.0 0.0 0.0 0.0 0.0 0.0 0.0 0.0 0.0 0.0 0.1 0.0 0.0 0.0 0.0 0.0 0.0 0.0 0.0 0.0 nan nan nan nan nan nan nan nan nan nan nan nan nan nan nan nan nan
0.0 0.0 0.0 0.0 0.0 0.0 0.0 0.0 0.0 0.0 0.0 0.0 0.0 0.0 0.0 0.0 0.0 0.0 0.0 0.0 0.0 nan nan nan nan nan nan nan nan nan nan nan nan nan nan nan nan nan
0.0 0.0 0.0 0.0 0.0 0.0 0.0 0.0 0.0 0.0 0.0 0.0 0.1 0.0 0.0 0.0 0.0 0.0 0.0 0.0 0.0 nan nan nan nan nan nan nan nan nan nan nan nan nan nan nan nan nan
0.0 0.0 0.0 0.0 0.0 0.0 0.0 0.0 0.0 0.0 0.0 0.0 0.0 0.1 0.0 0.0 0.0 0.0 0.0 0.0 0.0 0.0 nan nan nan nan nan nan nan nan nan nan nan nan nan nan nan nan
0.0 0.0 0.0 nan nan nan 0.0 0.0 0.0 0.0 0.0 0.2 0.1 0.2 0.0 0.0 0.0 0.0 0.0 0.0 0.0 0.0 0.0 0.0 0.0 0.0 0.0 nan nan nan nan nan nan nan nan nan nan nan
0.0 0.0 0.0 0.0 0.0 nan nan nan nan 0.0 0.0 0.3 0.2 0.0 0.0 0.0 0.0 0.0 0.1 0.3 0.3 0.0 0.0 0.0 0.0 0.0 0.0 0.0 nan nan nan nan nan nan nan nan nan nan
0.0 0.0 0.0 0.0 nan 0.0 nan nan nan nan nan 0.0 0.0 0.0 0.0 0.0 0.0 0.1 0.0 0.2 0.1 0.0 0.0 0.0 0.0 0.0 0.0 0.0 nan nan nan nan nan nan nan nan nan nan
0.0 0.0 0.0 0.0 0.0 0.0 0.0 0.0 0.0 0.0 0.0 0.0 0.0 0.0 0.0 0.0 0.0 0.0 0.0 0.0 0.0 0.0 0.0 0.6 0.0 0.0 0.0 0.0 nan nan nan nan nan nan nan nan nan nan
0.0 0.0 0.0 0.0 nan nan 0.0 0.0 0.0 0.0 nan nan nan nan nan nan nan 0.1 0.3 0.6 0.3 0.1 0.0 0.2 0.2 0.2 0.1 0.0 0.0 nan nan nan nan nan nan nan nan nan
0.0 0.0 nan 0.0 nan nan 0.0 0.0 0.0 0.0 0.0 0.0 0.0 0.0 nan nan nan 0.0 0.3 1.4 1.0 0.8 0.2 1.2 0.4 0.5 1.8 0.2 0.2 0.0 0.0 nan nan nan nan nan nan 0.0
0.0 0.0 0.0 nan nan nan nan 0.0 0.0 0.0 0.0 0.0 0.0 0.0 0.0 0.0 0.0 0.0 0.0 1.2 2.6 1.7 0.2 1.3 2.9 1.0 1.5 1.3 0.5 0.3 0.2 0.1 0.1 0.1 nan nan nan 0.0
0.0 0.0 0.0 nan nan nan nan nan nan nan 0.0 0.0 0.1 0.3 0.5 0.5 0.5 0.4 0.1 0.2 0.3 1.0 0.1 0.5 8.8 2.9 4.5 3.2 1.7 0.9 0.8 0.4 0.7 0.9 0.7 nan nan nan
0.0 0.0 nan nan nan nan nan nan nan 0.0 0.0 0.5 0.5 0.8 0.8 1.0 0.7 0.8 0.3 0.3 0.9 0.3 0.2 1.7 4.2 3.8 4.1 4.0 3.6 2.0 2.8 1.1 0.6 1.1 0.6 0.7 0.6 0.3
nan 0.2 nan 0.0 nan nan 0.0 0.0 0.0 0.0 0.2 0.5 0.7 0.5 0.8 2.2 1.9 1.6 3.9 3.4 4.3 3.2 1.0 1.6 2.1 2.6 5.0 2.1 2.8 3.5 1.9 5.7 1.4 0.9 0.6 0.5 0.2 0.0
nan 0.0 0.0 0.0 0.1 0.0 0.0 0.0 0.0 0.0 0.5 0.6 1.4 1.8 2.2 2.9 3.3 3.3 5.1 6.4 8.0 6.1 5.9 3.6 1.2 0.6 1.4 2.1 6.3 2.2 2.3 2.5 1.8 1.5 1.5 1.6 0.5 0.1
0.0 0.0 0.2 0.2 0.2 0.0 0.0 0.0 0.1 0.4 0.6 1.3 1.6 1.9 3.5 5.0 6.1 7.6 7.9 8.6 9.9 6.5 6.3 6.4 6.8 8.7 5.3 2.9 2.2 3.2 2.4 2.7 2.5 0.9 0.8 2.8 1.6 0.2
0.0 0.4 0.5 0.4 0.4 0.4 0.6 0.9 1.4 0.7 1.1 3.1 3.8 4.9 5.7 6.1 6.9 8.4 8.5 7.4 7.6 6.0 6.2 6.1 11.8 12.9 14.3 10.0 2.0 nan 6.6 3.5 3.0 2.6 0.6 1.2 1.9 0.6
0.4 0.6 0.6 0.5 0.5 0.8 1.1 1.9 2.1 2.1 3.1 3.8 4.8 6.1 7.8 9.4 10.4 9.7 8.1 10.6 8.4 7.7 7.9 7.4 11.7 15.6 18.4 14.9 10.7 4.3 nan 3.7 2.7 3.3 3.8 0.7 0.3 nan
0.5 0.6 0.4 0.6 0.8 1.2 1.5 2.4 2.5 5.0 6.7 8.5 7.5 9.6 8.5 9.5 8.5 7.3 6.5 4.9 nan 8.0 11.1 8.4 6.5 nan 9.5 9.2 10.6 3.6 2.3 nan 0.6 4.0 3.6 3.5 2.5 0.8
0.4 0.6 0.6 0.8 1.2 1.8 3.1 3.9 5.8 6.1 7.4 6.8 7.5 8.2 7.6 7.5 8.6 7.3 5.3 8.3 5.5 6.0 8.6 6.6 6.1 8.3 11.8 10.9 8.4 4.5 2.5 1.3 nan nan nan nan 8.5 13.0
0.6 0.7 0.9 1.3 1.7 2.5 3.8 5.2 6.0 5.9 5.9 7.8 8.1 7.6 7.5 10.4 4.7 4.9 5.4 5.1 6.7 8.1 6.3 7.3 6.2 6.2 6.6 8.3 11.0 6.5 4.1 2.9 1.9 2.4 1.9 nan nan nan
Water_Equivalent
0.00 0.00 0.00 0.00 0.00 0.00 0.00 0.00 0.00 0.00 0.00 0.00 0.00 0.00 0.00 0.00 0.00 0.00 0.00 nan nan nan nan nan nan nan nan nan nan nan nan nan nan nan nan nan nan nan
0.00 0.00 0.00 0.00 0.00 0.00 0.00 0.00 0.00 0.00 0.00 0.00 0.00 0.00 0.00 0.00 0.00 0.00 0.00 nan nan nan nan nan nan nan nan nan nan nan nan nan nan nan nan nan nan nan
0.00 0.00 0.00 0.00 0.00 0.00 0.00 0.00 0.00 0.00 0.00 0.02 0.00 0.00 0.00 0.00 0.00 0.00 0.00 0.00 0.00 nan nan nan nan nan nan nan nan nan nan nan nan nan nan nan nan nan
0.00 0.00 0.00 0.00 0.00 0.00 0.00 0.00 0.00 0.00 0.00 0.00 0.00 0.02 0.00 0.00 0.00 0.00 0.00 0.00 0.00 nan nan nan nan nan nan nan nan nan nan nan nan nan nan nan nan nan
0.00 0.00 0.00 0.00 0.00 0.00 0.00 0.00 0.00 0.00 0.00 0.00 0.02 0.00 0.00 0.00 0.00 0.00 0.00 0.00 0.00 nan nan nan nan nan nan nan nan nan nan nan nan nan nan nan nan nan
0.00 0.00 0.00 0.00 0.00 0.00 0.00 0.00 0.00 0.00 0.00 0.00 0.00 0.02 0.00 0.00 0.00 0.00 0.00 0.00 0.00 0.00 nan nan nan nan nan nan nan nan nan nan nan nan nan nan nan nan
0.00 0.00 0.00 nan nan nan 0.00 0.00 0.00 0.00 0.01 0.06 0.04 0.07 0.02 0.00 0.00 0.00 0.00 0.00 0.00 0.00 0.00 0.00 0.00 0.00 0.00 nan nan nan nan nan nan nan nan nan nan nan
0.00 0.00 0.00 0.00 0.00 nan nan nan nan 0.00 0.01 0.10 0.10 0.01 0.00 0.00 0.00 0.00 0.03 0.10 0.12 0.00 0.00 0.00 0.00 0.00 0.00 0.00 nan nan nan nan nan nan nan nan nan nan
0.00 0.00 0.00 0.00 nan 0.00 nan nan nan nan nan 0.00 0.00 0.00 0.00 0.00 0.01 0.03 0.01 0.07 0.03 0.00 0.00 0.00 0.00 0.00 0.00 0.00 nan nan nan nan nan nan nan nan nan nan
0.00 0.00 0.00 0.00 0.00 0.00 0.00 0.00 0.00 0.00 0.00 0.00 0.00 0.00 0.00 0.00 0.00 0.01 0.01 0.00 0.00 0.00 0.00 0.20 0.00 0.00 0.00 0.00 nan nan nan nan nan nan nan nan nan nan
0.00 0.00 0.00 0.00 nan nan 0.00 0.00 0.00 0.00 nan nan nan nan nan nan nan 0.04 0.13 0.22 0.11 0.03 0.01 0.09 0.06 0.08 0.05 0.00 0.00 nan nan nan nan nan nan nan nan nan
0.00 0.00 nan 0.00 nan nan 0.00 0.00 0.00 0.00 0.00 0.00 0.00 0.00 nan nan nan 0.00 0.12 0.48 0.36 0.29 0.07 0.36 0.15 0.18 0.48 0.09 0.09 0.02 0.00 nan nan nan nan nan nan 0.00
0.00 0.00 0.00 nan nan nan nan 0.00 0.00 0.00 0.00 0.00 0.00 0.00 0.00 0.00 0.00 0.01 0.00 0.43 0.87 0.59 0.07 0.42 0.80 0.30 0.44 0.34 0.16 0.12 0.08 0.03 0.03 0.05 nan nan nan 0.00
0.00 0.00 0.00 nan nan nan nan nan nan nan 0.00 0.00 0.06 0.11 0.17 0.20 0.19 0.15 0.03 0.08 0.12 0.32 0.05 0.16 2.35 0.76 1.11 0.67 0.39 0.24 0.21 0.16 0.24 0.33 0.27 nan nan nan
0.00 0.00 nan nan nan nan nan nan nan 0.02 0.02 0.14 0.20 0.32 0.31 0.35 0.25 0.26 0.10 0.11 0.28 0.09 0.06 0.50 1.16 1.03 1.02 0.96 0.71 0.42 0.60 0.34 0.24 0.38 0.24 0.27 0.22 0.11
nan 0.08 nan 0.00 nan nan 0.00 0.00 0.02 0.00 0.06 0.15 0.19 0.18 0.29 0.62 0.53 0.49 1.00 0.92 1.11 0.81 0.31 0.51 0.61 0.76 1.19 0.51 0.69 0.68 0.45 1.19 0.43 0.34 0.22 0.18 0.08 0.02
nan 0.00 0.00 0.00 0.04 0.00 0.00 0.00 0.00 0.00 0.15 0.16 0.35 0.45 0.58 0.76 0.84 0.90 1.25 1.52 1.81 1.27 1.08 0.81 0.30 0.16 0.40 0.50 1.21 0.50 0.47 0.56 0.55 0.55 0.41 0.49 0.20 0.06
0.00 0.00 0.05 0.07 0.07 0.00 0.01 0.01 0.02 0.13 0.16 0.35 0.42 0.49 0.84 1.13 1.31 1.57 1.73 1.77 1.81 1.25 1.24 1.16 1.14 1.23 1.00 0.69 0.58 0.68 0.55 0.61 0.67 0.32 0.26 0.64 0.45 0.09
0.00 0.12 0.13 0.12 0.12 0.13 0.17 0.23 0.35 0.23 0.33 0.85 0.95 1.17 1.27 1.31 1.43 1.52 1.55 1.40 1.34 1.13 1.17 1.10 1.66 1.81 1.75 1.19 0.39 nan 1.37 0.77 0.67 0.54 0.19 0.33 0.52 0.24
0.13 0.17 0.19 0.16 0.15 0.23 0.28 0.47 0.51 0.51 0.75 0.92 1.10 1.34 1.68 1.91 1.90 1.62 1.34 1.54 1.29 1.31 1.30 1.33 1.83 2.32 2.83 2.25 1.61 0.80 nan 0.82 0.58 0.64 0.78 0.19 0.11 nan
0.15 0.17 0.14 0.19 0.24 0.35 0.44 0.63 0.61 1.10 1.50 1.88 1.64 2.01 1.78 1.91 1.55 1.25 1.08 0.84 nan 1.24 1.43 1.10 1.22 nan 2.21 1.66 1.47 0.54 0.50 nan 0.14 0.82 0.78 0.61 0.48 0.19
0.11 0.17 0.18 0.25 0.37 0.53 0.85 1.06 1.42 1.46 1.57 1.42 1.53 1.64 1.53 1.48 1.58 1.20 0.82 1.19 0.79 0.93 1.23 1.23 1.13 1.52 1.99 1.62 1.16 0.55 0.42 0.28 nan nan nan nan 1.57 2.08
0.19 0.19 0.28 0.41 0.52 0.71 1.05 1.34 1.50 1.43 1.40 1.73 1.75 1.54 1.44 1.71 0.88 0.87 0.89 0.83 1.01 1.11 0.96 0.99 0.94 1.02 1.08 1.31 1.49 0.89 0.49 0.41 0.36 0.46 0.46 nan nan nan
SL_Ratio
nan nan nan nan nan nan nan nan nan nan nan nan nan nan nan nan nan nan nan nan nan nan nan nan nan nan nan nan nan nan nan nan nan nan nan nan nan nan
nan nan nan nan nan nan nan nan nan nan nan nan nan nan nan nan nan nan nan nan nan nan nan nan nan nan nan nan nan nan nan nan nan nan nan nan nan nan
nan nan nan nan nan nan nan nan nan nan nan 2.5 nan nan nan nan nan nan nan nan nan nan nan nan nan nan nan nan nan nan nan nan nan nan nan nan nan nan
nan nan nan nan nan nan nan nan nan nan nan nan 2.5 2.5 nan nan nan nan nan nan nan nan nan nan nan nan nan nan nan nan nan nan nan nan nan nan nan nan
nan nan nan nan nan nan nan nan nan 2.5 nan nan 2.5 nan 5.0 nan nan nan nan nan nan nan nan nan nan nan nan nan nan nan nan nan nan nan nan nan nan nan
nan nan nan nan nan nan nan nan nan nan nan nan 2.7 2.5 nan 5.0 nan nan nan nan nan nan nan nan nan nan nan nan nan nan nan nan nan nan nan nan nan nan
nan nan nan nan nan nan nan nan nan nan 2.6 2.5 2.5 2.5 2.5 nan nan nan nan nan nan nan nan nan nan nan nan nan nan nan nan nan nan nan nan nan nan nan
nan nan nan nan nan nan nan nan nan nan 2.2 2.5 2.5 2.5 nan nan nan nan 2.6 2.6 2.9 nan nan nan nan nan nan nan nan nan nan nan nan nan nan nan nan nan
nan nan nan nan nan nan nan nan nan nan nan nan nan nan nan nan 2.6 2.6 2.6 2.7 2.8 nan nan 2.5 nan nan nan nan nan nan nan nan nan nan nan nan nan nan
nan nan nan nan nan nan nan nan nan nan nan nan nan nan nan nan nan 2.6 2.6 2.5 2.0 nan nan 2.8 nan nan nan nan nan nan nan nan nan nan nan nan nan nan
nan nan nan nan nan nan nan 2.3 nan nan nan nan nan nan nan nan nan 2.5 2.5 2.6 2.6 2.5 2.5 2.6 2.5 2.5 2.5 2.5 nan nan nan nan nan nan nan nan nan nan
nan nan nan nan nan nan nan nan nan nan 3.3 2.9 nan nan nan nan nan nan 2.5 2.9 2.8 2.9 2.5 3.3 3.0 3.1 3.6 2.5 2.5 2.5 nan nan nan nan nan nan nan nan
nan nan nan nan nan nan nan nan nan nan nan nan nan nan nan 2.3 nan 2.6 2.5 2.8 3.0 2.9 2.5 3.2 3.6 3.3 3.3 3.9 2.8 2.7 2.5 2.5 2.7 2.6 nan nan nan nan
nan nan nan nan nan nan nan nan nan nan nan nan 2.5 2.5 2.7 2.7 2.5 2.5 2.5 2.6 2.7 3.0 2.7 3.0 3.8 3.8 4.0 4.8 4.5 3.9 3.7 2.7 2.8 2.7 2.5 nan nan nan
nan nan nan nan nan nan nan nan nan 2.6 3.0 3.2 2.6 2.6 2.6 2.7 2.9 3.2 3.1 3.0 3.2 3.0 2.9 3.3 3.6 3.7 4.0 4.1 5.0 4.9 4.7 3.2 2.6 2.8 2.7 2.5 2.5 2.5
nan 2.6 nan nan nan nan nan nan 2.6 nan 3.5 3.7 3.4 2.9 2.9 3.5 3.5 3.3 3.9 3.7 3.9 4.0 3.3 3.1 3.4 3.4 4.2 4.0 4.1 5.1 4.2 4.8 3.1 2.6 2.5 2.5 2.5 2.5
nan nan 5.0 2.5 2.9 2.8 2.5 2.9 2.7 3.3 3.6 3.5 4.0 4.0 3.8 3.8 3.9 3.7 4.0 4.2 4.4 4.8 5.5 4.5 3.9 3.4 3.6 4.1 5.2 4.4 4.8 4.5 3.3 2.8 3.7 3.2 2.5 2.5
nan 5.0 3.0 3.0 3.2 6.0 3.7 3.5 3.0 3.1 3.5 3.7 3.9 3.9 4.2 4.4 4.6 4.8 4.6 4.9 5.5 5.2 5.1 5.5 5.9 7.1 5.3 4.3 3.9 4.7 4.4 4.4 3.7 3.0 3.0 4.3 3.5 2.5
nan 3.2 3.5 3.2 3.3 3.3 3.6 3.7 4.0 3.3 3.3 3.6 4.0 4.1 4.4 4.6 4.8 5.6 5.5 5.3 5.6 5.3 5.3 5.6 7.1 7.2 8.2 8.4 5.1 nan 4.8 4.5 4.5 4.8 3.4 3.7 3.7 2.5
3.3 3.3 3.4 3.3 3.4 3.5 3.7 4.2 4.2 4.0 4.1 4.1 4.4 4.6 4.7 4.9 5.5 6.0 6.1 6.9 6.5 5.9 6.1 5.6 6.4 6.7 6.5 6.6 6.7 5.4 nan 4.5 4.5 5.1 4.8 3.5 2.9 nan
3.3 3.4 3.2 3.3 3.4 3.3 3.5 3.8 4.0 4.6 4.5 4.5 4.6 4.8 4.8 4.9 5.5 5.8 6.0 5.8 nan 6.4 7.7 7.6 5.4 nan 4.3 5.5 7.2 6.6 4.7 nan 4.0 4.8 4.6 5.7 5.3 4.4
3.4 3.5 3.3 3.2 3.3 3.4 3.6 3.7 4.1 4.2 4.7 4.8 4.9 5.0 5.0 5.0 5.5 6.1 6.4 7.0 6.9 6.5 7.0 5.3 5.4 5.5 5.9 6.7 7.3 8.2 5.9 4.5 nan nan nan nan 5.4 6.2
3.1 3.5 3.3 3.2 3.3 3.6 3.7 3.9 4.0 4.1 4.2 4.5 4.6 4.9 5.2 6.1 5.4 5.6 6.1 6.1 6.7 7.3 6.6 7.4 6.6 6.1 6.1 6.4 7.4 7.3 8.4 7.2 5.4 5.3 4.2 nan nan nan